Volver al catálogo

STARLINK-6278

ActivoComunicacionesVLEO
NORAD 56412·PAYLOAD·🇺🇸 United States

Lanzado May 4, 2023 desde Cape Canaveral Space Force Station

Loading…

Próximos Pases (próximas 24 horas)

TLE

ActualizadoSource: CelesTrak SupGP

Época: Sep 14, 2026, 20:50 UTC

1 56412C 23061AQ  26257.86854167  .00004767  00000+0  17270-3 0  2577
2 56412  43.0028 198.4429 0001531 265.1273 307.2740 15.27569398    19

Sigue STARLINK-6278 en tiempo real con AllMySat

Download on the App Store